{"data":{"norad_id":56549,"intl_designator":"2023-065AY","name":"STARLINK-6263","alt_names":[],"object_type":"PAYLOAD","status":"ACTIVE","operator":null,"country":"US","launch_date":"2023-05-14","launch_site_code":"AFETR","launch_vehicle":null,"mission":null,"orbit_class":"UNKNOWN","rcs_meters":null,"size_class":null,"mass_kg":null,"dimensions":null,"purposes":["comms"],"wikipedia_slug":null,"has_3d_model":false,"image_url":null,"decayed_at":null,"tle_current":{"epoch":"2026-05-25T00:04:29.649216Z","epoch_age_seconds":84850,"freshness":"FRESH","line1":"1 56549U 23065AY  26145.00312094  .00000566  00000+0  30080-4 0  9993","line2":"2 56549  43.0027 152.5748 0001287 290.7054  69.3660 15.27575985168148","mean_motion":15.27575985,"eccentricity":0.0001287,"inclination_deg":43.0027,"raan_deg":152.5748,"arg_perigee_deg":290.7054,"mean_anomaly_deg":69.366,"bstar":3.008e-5,"rev_number":16814,"period_min":94.266996479393,"perigee_km":482.17808222253,"apogee_km":483.94415461822,"semimajor_km":6861.1981184204,"source":"CELESTRAK","updated_at":"2026-05-25T13:38:18.116379Z"}}}